CAPE
0 0 0 0 0 0 0 0 0 0 0 0 0 0 0 0 0 0 0 0 0 0 0 0 0 0 0 0 0 0 0 0 0 0 0 0 0 0 0 0 0 5 1 0
0 0 0 0 0 0 0 0 0 0 0 0 0 0 0 0 0 0 0 0 0 0 0 0 0 0 0 0 0 0 0 0 0 0 0 0 0 0 0 0 2 0 1 0
0 0 0 0 0 0 0 0 0 0 0 0 0 0 0 0 0 0 0 0 0 0 0 0 0 0 0 0 0 0 0 0 0 0 0 0 0 0 0 0 0 0 0 0
0 0 0 0 0 0 0 0 0 0 0 0 0 0 0 0 0 0 0 1 0 0 0 0 0 0 0 0 0 0 0 0 0 0 0 0 0 0 0 0 0 0 0 0
0 0 0 0 0 0 0 0 0 0 0 0 0 0 0 0 0 0 1 4 0 1 1 2 2 0 0 1 0 0 0 0 0 0 0 0 0 0 0 0 0 0 0 0
0 0 0 0 0 0 0 0 0 0 0 0 0 0 0 0 0 2 3 0 0 0 0 0 0 0 0 0 0 0 0 1 0 1 0 0 0 0 0 0 0 0 0 0
1 0 0 0 0 0 0 1 0 0 0 0 0 0 0 0 0 0 0 0 0 0 0 0 0 0 0 0 0 0 0 0 1 0 0 0 0 0 0 0 0 0 0 0
10 5 0 0 0 0 3 0 0 0 0 0 0 0 0 0 0 0 0 0 0 0 0 0 0 0 0 0 0 0 0 0 0 1 0 0 0 0 0 0 0 0 0 0
8 9 4 0 0 0 14 7 7 0 0 0 0 0 0 0 0 0 0 0 0 0 0 0 0 0 0 0 0 0 0 0 0 0 1 0 0 0 0 0 0 0 0 0
1 0 0 0 0 4 14 13 12 19 3 0 0 0 0 0 0 0 0 0 0 0 0 0 0 0 0 0 0 0 1 2 0 0 1 0 0 0 0 0 0 0 0 0
4 5 13 8 9 10 24 3 9 3 1 0 1 0 0 2 2 1 0 0 0 0 0 0 0 0 0 0 0 1 6 0 1 0 1 0 0 0 0 0 0 0 0 0
7 0 0 0 0 0 2 12 10 6 3 0 0 0 0 3 6 10 0 1 0 1 1 3 0 2 0 0 1 4 1 4 0 0 0 0 0 0 0 0 0 0 0 0
0 0 0 0 0 0 0 2 3 7 3 0 0 0 0 0 0 0 4 1 6 5 8 11 5 1 1 1 0 2 2 1 0 1 0 0 0 0 0 0 0 0 0 0
0 3 1 0 0 0 0 0 8 3 4 0 0 0 0 0 0 0 0 6 0 2 6 15 10 9 5 1 0 0 0 0 0 0 0 0 0 0 0 0 0 0 0 0
0 0 0 0 0 0 0 0 4 3 0 0 0 0 0 0 0 0 0 0 0 0 5 8 3 3 8 2 2 0 0 0 0 0 0 0 0 0 0 0 0 0 0 0
0 0 0 0 0 0 0 0 0 0 4 4 0 0 0 0 0 0 0 0 0 2 4 3 2 0 7 2 0 0 0 0 0 0 0 0 0 0 0 0 0 0 0 0
0 0 0 0 0 2 0 0 0 0 22 2 2 0 0 0 0 0 0 0 1 3 3 3 2 0 8 4 2 0 0 0 0 0 0 0 0 0 0 0 0 0 0 0
0 0 0 1 3 4 2 7 25 13 4 6 2 0 0 0 0 0 0 0 1 2 5 5 2 1 0 1 0 0 0 0 0 0 0 0 0 0 0 0 0 0 0 0
0 0 0 0 0 1 5 0 0 19 14 7 9 0 0 0 0 0 5 0 2 0 2 1 0 1 0 0 0 0 0 0 0 0 0 0 0 0 0 0 0 0 0 0
0 0 0 0 1 3 0 1 1 12 0 11 1 1 0 0 1 1 1 10 2 2 0 0 1 0 0 0 0 0 0 0 0 0 0 0 0 0 0 0 0 0 0 0
0 0 0 0 0 0 1 0 0 0 1 4 0 1 4 1 1 1 1 1 1 2 0 1 3 2 0 0 0 0 0 0 0 0 0 0 0 0 0 0 0 0 0 0
0 0 0 0 0 0 0 0 0 1 0 1 1 0 0 0 3 1 0 0 1 0 0 0 1 0 0 0 0 0 0 0 0 0 1 0 1 0 0 0 0 0 0 0
0 0 0 0 0 0 0 0 0 1 0 1 3 0 0 4 0 1 1 0 0 0 0 1 0 0 0 0 0 0 1 1 1 1 0 1 1 1 1 0 0 0 0 0
0 0 0 0 0 0 0 0 1 0 0 3 1 1 0 1 1 1 0 0 0 6 0 0 0 1 1 1 1 0 1 1 1 0 0 0 0 1 0 1 0 0 0 0
0 0 0 0 0 0 1 0 0 0 0 0 1 1 2 1 0 0 0 0 0 0 0 0 0 0 1 1 0 0 0 0 0 0 0 0 0 1 3 0 0 0 0 0
0 0 0 0 0 0 0 0 0 0 1 0 0 1 0 0 0 0 0 0 0 0 0 1 0 0 0 0 0 0 0 0 0 0 0 0 0 0 1 2 2 2 1 1
0 0 0 0 0 0 0 0 0 2 1 1 0 0 0 0 0 0 0 0 0 0 0 0 0 0 0 0 0 0 0 0 0 0 0 0 0 0 0 0 0 0 1 0
CIN
-0 -0 -0 -0 -0 -0 -0 -0 -0 -0 -0 -0 -0 -0 -0 -0 -0 -0 -0 -0 -0 -0 -0 -0 -0 -0 -0 -0 -0 -0 -0 -0 -0 -0 -0 -0 -0 -0 -0 -0 -0 -3 -0 -0
-0 -0 -0 -0 -0 -0 -0 -0 -0 -0 -0 -0 -0 -0 -0 -0 -0 -0 -0 -0 -0 -0 -0 -0 -0 -0 -0 -0 -0 -0 -0 -0 -0 -0 -0 -0 -0 -0 -0 -0 -1 -0 -0 -0
-0 -0 -0 -0 -0 -0 -0 -0 -0 -0 -0 -0 -0 -0 -0 -0 -0 -0 -0 -0 -0 -0 -0 -0 -0 -0 -0 -0 -0 -0 -0 -0 -0 -0 -0 -0 -0 -0 -0 -0 -0 -0 -0 -0
-0 -0 -0 -0 -0 -0 -0 -0 -0 -0 -0 -0 -0 -0 -0 -0 -0 -0 -0 -0 -0 -0 -0 -0 -0 -0 -0 -0 -0 -0 -0 -0 -0 -0 -0 -0 -0 -0 -0 -0 -0 -0 -0 -0
-0 -0 -0 -0 -0 -0 -0 -0 -0 -0 -0 -0 -0 -0 -0 -0 -0 -0 -0 -0 -0 -0 -0 -0 -1 -2 -0 -0 -0 -0 -0 -0 -0 -0 -0 -0 -0 -0 -0 -0 -0 -0 -0 -0
-0 -0 -0 -0 -0 -0 -0 -0 -0 -0 -0 -0 -0 -0 -1 -0 -0 -2 -0 -0 -0 -0 -1 -0 -0 -0 -0 -0 -0 -0 -0 -1 -1 -0 -0 -0 -0 -0 -0 -0 -0 -0 -0 -0
-0 -0 -0 -0 -0 -0 -0 -0 -0 -0 -0 -0 -0 -0 -0 -0 -0 -0 -0 -0 -0 -0 -0 -0 -0 -0 -0 -0 -0 -0 -0 -1 -2 -1 -0 -0 -0 -0 -0 -0 -0 -0 -0 -0
-2 -1 -0 -0 -0 -0 -0 -0 -0 -0 -0 -0 -0 -0 -0 -0 -0 -0 -0 -0 -0 -0 -0 -0 -0 -0 -0 -0 -0 -0 -0 -0 -1 -0 -1 -0 -0 -0 -0 -0 -0 -0 -0 -0
-2 -1 -4 -0 -0 -0 -0 -0 -8 -3 -0 -0 -0 -0 -0 -0 -0 -0 -0 -0 -0 -0 -0 -0 -0 -0 -0 -0 -0 -0 -0 -0 -0 -0 -2 -0 -0 -0 -0 -0 -0 -0 -0 -0
-4 -0 -0 -0 -0 -0 -0 -0 -3 -0 -0 -1 -0 -0 -0 -0 -0 -0 -0 -0 -0 -0 -0 -0 -0 -0 -0 -0 -0 -3 -0 -0 -0 -0 -1 -0 -0 -0 -0 -0 -0 -0 -0 -0
-1 -0 -2 -4 -5 -0 -0 -3 -4 -1 -0 -0 -0 -0 -1 -1 -0 -1 -0 -0 -0 -0 -0 -0 -0 -0 -0 -0 -1 -1 -1 -0 -0 -0 -2 -0 -0 -0 -0 -0 -0 -0 -0 -0
-0 -0 -0 -0 -1 -1 -10 -0 -0 -0 -0 -0 -0 -0 -0 -1 -1 -1 -0 -1 -0 -0 -0 -1 -0 -0 -2 -0 -2 -8 -2 -2 -1 -0 -0 -0 -0 -0 -0 -0 -0 -0 -0 -0
-0 -0 -0 -0 -0 -0 -0 -0 -0 -0 -0 -0 -0 -0 -0 -0 -0 -0 -0 -0 -1 -2 -1 -1 -2 -0 -4 -3 -0 -2 -5 -5 -0 -0 -0 -0 -0 -0 -0 -0 -0 -0 -0 -0
-0 -0 -0 -0 -0 -0 -0 -0 -0 -0 -0 -0 -0 -0 -0 -0 -0 -0 -0 -0 -0 -1 -2 -0 -1 -1 -2 -2 -0 -0 -0 -0 -0 -0 -0 -0 -0 -0 -0 -0 -0 -0 -0 -0
-0 -0 -0 -0 -0 -0 -0 -0 -0 -0 -0 -0 -0 -0 -0 -0 -0 -0 -0 -0 -0 -1 -0 -0 -0 -0 -0 -1 -0 -0 -0 -0 -0 -0 -0 -0 -0 -0 -0 -0 -0 -0 -0 -0
-0 -0 -0 -0 -0 -0 -0 -0 -0 -0 -0 -0 -0 -0 -0 -0 -0 -0 -0 -0 -0 -1 -0 -1 -1 -0 -0 -1 -0 -0 -0 -0 -0 -0 -0 -0 -0 -0 -0 -0 -0 -0 -0 -0
-0 -0 -0 -0 -0 -0 -0 -0 -1 -1 -3 -0 -0 -0 -0 -0 -0 -0 -0 -0 -1 -1 -1 -0 -1 -0 -0 -1 -0 -0 -0 -0 -0 -0 -0 -0 -0 -0 -0 -0 -0 -0 -0 -0
-0 -0 -0 -0 -1 -1 -0 -1 -1 -2 -0 -0 -0 -0 -0 -0 -0 -0 -0 -0 -0 -2 -0 -0 -1 -1 -0 -0 -0 -0 -0 -0 -0 -0 -0 -0 -0 -0 -0 -0 -0 -0 -0 -0
-0 -0 -0 -0 -0 -0 -1 -1 -0 -0 -0 -0 -0 -0 -0 -0 -0 -0 -0 -0 -1 -0 -0 -0 -1 -2 -0 -0 -0 -0 -0 -0 -0 -0 -0 -0 -0 -0 -0 -0 -0 -0 -0 -0
-0 -0 -0 -0 -0 -1 -0 -1 -0 -0 -0 -1 -0 -0 -0 -0 -0 -0 -1 -0 -0 -0 -0 -0 -0 -0 -0 -0 -0 -0 -0 -0 -0 -0 -0 -0 -0 -0 -0 -0 -0 -0 -0 -0
-0 -0 -0 -0 -0 -0 -0 -0 -0 -0 -0 -0 -0 -0 -0 -0 -0 -0 -0 -0 -0 -0 -1 -0 -0 -0 -0 -0 -0 -0 -0 -0 -0 -0 -0 -0 -0 -0 -0 -0 -0 -0 -0 -0
-0 -0 -0 -0 -0 -0 -0 -0 -0 -0 -0 -0 -0 -0 -0 -0 -0 -0 -0 -0 -1 -0 -0 -0 -0 -0 -0 -0 -0 -0 -0 -0 -0 -0 -0 -0 -0 -0 -0 -0 -0 -0 -0 -0
-0 -0 -0 -0 -0 -0 -0 -0 -0 -0 -0 -0 -0 -0 -0 -0 -0 -0 -0 -0 -0 -0 -0 -0 -0 -0 -0 -0 -0 -0 -0 -0 -0 -0 -0 -0 -0 -0 -0 -0 -0 -0 -0 -0
-0 -0 -0 -0 -0 -0 -0 -1 -0 -0 -0 -0 -0 -0 -0 -0 -0 -0 -0 -0 -0 -0 -0 -0 -0 -0 -0 -0 -0 -0 -0 -0 -0 -0 -0 -0 -0 -0 -0 -0 -0 -0 -0 -0
-0 -0 -0 -0 -0 -0 -0 -0 -0 -0 -0 -0 -0 -0 -0 -0 -0 -0 -0 -0 -8 -0 -0 -0 -0 -0 -0 -0 -0 -0 -0 -0 -0 -0 -0 -0 -0 -0 -0 -0 -0 -0 -0 -0
-0 -0 -0 -0 -0 -0 -0 -0 -0 -0 -0 -0 -0 -0 -0 -0 -0 -0 -0 -0 -0 -0 -0 -0 -0 -0 -0 -0 -0 -0 -0 -0 -0 -0 -0 -0 -0 -0 -0 -0 -0 -0 -0 -0
-0 -0 -0 -0 -0 -0 -0 -0 -0 -0 -0 -0 -0 -0 -0 -0 -0 -0 -0 -0 -0 -0 -0 -0 -0 -0 -0 -0 -0 -0 -0 -0 -0 -0 -0 -0 -0 -0 -0 -0 -0 -0 -0 -0
Wind_Speed
21 24 26 28 31 33 23 21 21 21 20 18 18 18 19 19 19 18 18 17 17 18 21 20 18 17 15 17 18 17 20 22 22 21 22 19 16 18 21 24 23 20 22 19
20 22 25 26 28 27 24 23 21 19 18 20 19 19 18 18 19 19 19 18 17 19 19 21 17 17 14 17 17 19 21 21 24 21 19 18 18 16 20 21 20 18 18 19
17 20 24 25 26 26 22 22 24 20 19 19 20 21 20 19 18 19 19 19 18 18 18 14 17 18 17 17 18 21 21 20 20 19 26 34 29 20 23 18 19 13 10 14
16 19 22 24 25 25 20 21 22 21 23 21 22 21 21 22 23 19 20 19 20 22 22 21 17 18 19 16 19 20 19 16 25 24 25 26 24 21 17 13 12 10 15 9
14 18 21 23 25 25 19 23 22 19 23 21 21 20 21 21 22 21 21 22 24 22 23 23 25 23 20 20 19 20 21 19 30 31 30 25 34 26 19 15 10 10 17 20
13 16 18 20 22 22 19 18 18 21 22 21 21 22 22 21 23 21 21 21 27 26 24 23 21 19 19 18 19 20 18 24 26 22 31 38 38 25 23 19 15 5 4 11
11 13 16 18 20 21 19 17 18 19 22 20 20 22 21 23 23 24 23 25 26 22 27 26 22 21 21 21 20 19 19 21 22 30 37 28 21 31 27 19 18 15 16 31
12 11 15 16 18 18 18 17 18 19 23 21 23 23 24 24 23 24 24 25 24 24 25 29 30 25 22 20 16 17 17 20 22 22 29 39 42 22 19 20 16 21 24 26
11 10 13 16 17 15 16 18 18 19 23 22 20 22 24 26 28 26 22 22 25 21 24 25 30 30 27 24 21 21 19 17 17 22 29 29 23 20 22 20 18 25 26 26
10 11 14 16 16 12 14 17 15 18 22 22 20 24 24 25 25 26 27 25 24 22 26 29 30 29 21 26 23 21 18 18 18 22 28 29 28 25 24 24 24 26 25 26
9 9 11 15 14 9 14 17 15 18 22 24 21 20 24 22 22 27 24 31 20 21 24 25 24 26 23 25 20 21 19 21 24 21 26 36 26 21 22 20 21 23 25 26
5 8 12 13 13 14 15 18 15 17 21 24 24 22 19 18 20 25 23 20 21 21 23 22 24 26 27 26 27 23 20 24 28 21 21 17 20 21 23 23 24 24 25 26
7 9 11 12 13 15 16 17 17 19 25 28 21 21 22 15 12 14 23 19 19 22 21 26 26 27 25 26 21 25 26 25 27 33 25 27 30 33 33 32 28 28 27 28
7 9 10 12 14 16 17 17 18 20 24 28 23 20 25 20 17 16 15 18 21 21 21 24 25 26 21 23 28 30 26 36 37 43 40 43 43 38 29 27 32 36 35 34
7 8 11 12 14 16 17 19 19 18 20 27 32 34 24 21 18 16 15 16 17 20 21 22 24 23 27 23 22 24 26 32 42 55 44 45 48 47 48 48 46 45 45 44
8 9 10 12 14 17 20 22 19 19 15 27 31 26 25 24 19 14 14 15 16 16 20 21 21 18 24 28 30 35 30 30 30 36 38 47 51 48 47 48 48 45 42 41
7 9 11 14 16 17 20 22 20 17 18 25 28 25 20 22 21 20 20 16 15 16 19 21 22 21 21 27 33 29 35 37 39 39 43 46 42 44 44 45 45 46 43 41
9 12 14 17 19 20 22 21 16 15 20 20 24 24 24 23 23 23 18 20 18 18 19 21 21 21 17 26 29 31 32 33 31 34 37 41 45 45 46 46 44 45 44 42
11 14 17 18 19 20 19 19 19 14 16 22 21 25 28 22 24 24 21 18 21 17 18 19 17 18 20 23 29 33 34 34 37 40 42 44 45 44 41 42 44 43 43 41
13 16 18 20 18 18 21 20 19 17 15 17 21 19 23 24 25 22 21 18 20 22 17 15 16 19 18 28 34 36 37 37 37 40 43 41 41 40 40 40 39 39 39 38
16 17 19 17 19 20 19 19 18 18 20 16 17 17 24 22 23 22 18 21 20 22 18 16 19 19 26 35 39 40 39 40 40 17 24 30 47 45 42 42 39 38 36 36
15 16 17 18 18 18 18 19 18 17 20 17 20 24 24 22 19 20 18 19 18 19 16 17 18 23 37 41 43 44 42 42 41 38 41 47 46 43 46 41 37 35 34 32
17 18 18 18 17 19 20 21 19 19 18 20 24 29 23 20 17 18 17 17 17 16 16 16 20 36 42 45 46 44 41 40 41 42 42 43 43 44 39 33 38 35 29 28
18 18 20 19 18 18 17 17 18 19 21 25 27 27 23 19 19 15 17 13 16 15 16 20 33 40 43 40 37 39 40 38 40 40 39 36 32 29 32 28 22 24 23 23
17 17 20 18 17 17 17 18 20 21 22 24 26 23 20 18 16 13 13 13 14 18 23 29 34 34 35 37 38 37 37 35 21 15 29 30 25 18 15 16 14 13 13 16
16 17 18 17 19 19 21 21 22 20 21 23 20 20 20 17 13 11 12 17 18 24 27 27 27 25 27 32 35 34 28 28 33 28 29 29 25 17 13 12 12 12 12 12
18 19 18 19 22 23 21 19 20 17 21 21 19 19 17 17 13 12 21 23 25 24 23 26 23 19 9 18 29 22 22 29 31 31 32 27 23 17 14 12 12 12 14 13
Wind_Direction
333 334 336 338 340 338 353 354 345 352 355 354 356 351 353 355 354 359 356 355 349 346 346 346 348 349 357 360 351 351 345 338 332 329 335 337 335 337 342 342 349 350 350 358
333 336 334 339 343 348 349 344 345 354 355 343 345 348 347 347 346 348 351 350 354 353 349 346 350 348 2 357 350 349 345 341 338 336 341 345 341 340 337 337 342 343 348 4
332 335 334 341 344 346 350 342 335 347 351 350 343 340 342 343 347 341 343 341 344 342 337 337 341 344 351 349 342 334 333 329 323 321 322 318 317 319 321 323 327 331 292 273
331 333 335 340 346 344 348 342 336 339 335 337 338 339 339 338 338 343 344 343 346 344 338 338 331 337 337 339 337 331 328 314 317 318 320 321 316 311 310 293 275 279 255 277
326 326 333 338 342 340 344 334 334 339 332 337 335 337 338 336 337 338 338 335 339 340 334 334 330 334 331 329 335 332 328 321 320 315 321 320 311 311 260 268 269 257 242 252
320 326 334 342 342 342 342 343 342 335 333 334 333 332 334 336 337 339 338 339 335 331 330 332 329 324 317 309 311 312 306 315 320 307 316 313 309 320 320 325 336 319 316 342
315 325 331 338 341 340 341 343 340 334 328 331 330 331 331 327 328 325 330 328 326 334 334 327 315 299 289 284 278 287 291 303 311 311 308 313 324 308 309 318 324 335 332 293
315 322 326 333 337 339 338 339 336 333 325 329 326 325 324 326 328 327 327 330 334 336 334 331 331 333 327 323 306 295 275 286 298 303 304 300 297 323 319 308 318 330 315 311
307 319 325 325 328 335 336 334 337 334 327 328 329 329 328 326 327 327 330 338 338 342 335 330 326 329 334 333 334 334 318 297 284 304 298 302 322 327 320 321 303 318 312 310
314 322 323 323 323 331 335 337 336 329 323 325 327 323 325 330 327 326 329 334 333 333 326 320 321 320 322 325 326 328 328 313 287 288 293 297 308 311 310 297 300 310 311 309
320 333 341 339 342 348 338 336 337 329 322 320 322 320 318 323 324 321 330 332 338 333 328 328 327 326 325 322 319 323 320 313 303 294 295 286 312 314 301 306 312 315 316 313
351 344 338 342 344 344 340 333 339 337 324 321 327 322 317 310 313 319 321 322 336 341 332 332 332 325 324 323 318 324 308 300 301 298 304 319 312 310 309 305 302 312 314 317
335 336 337 338 345 345 339 336 338 335 326 326 328 332 331 324 313 314 311 309 311 313 316 320 322 316 320 315 314 311 306 311 301 294 299 295 296 290 292 291 289 297 303 307
337 339 344 340 343 344 342 338 339 336 331 325 335 347 330 338 329 322 308 302 311 317 322 316 314 313 320 310 307 301 302 297 295 283 285 285 280 288 296 294 288 286 287 291
338 343 345 342 343 341 339 334 334 334 331 325 325 326 335 340 325 311 311 312 307 310 309 304 304 309 308 299 295 289 295 291 286 265 288 283 280 283 281 281 281 280 281 282
336 342 342 341 338 338 338 334 343 345 338 330 328 336 337 343 349 340 334 323 316 309 319 318 314 295 307 311 307 305 301 296 291 292 293 287 281 282 280 278 277 278 279 281
343 343 338 333 331 334 331 332 339 351 347 334 332 334 345 345 345 340 336 336 331 326 322 312 307 310 312 308 304 311 309 303 297 295 294 290 290 286 283 283 280 277 279 278
334 331 329 326 327 329 327 332 331 340 339 341 334 332 337 347 342 340 345 336 332 330 325 327 322 326 321 315 317 320 318 313 306 301 298 292 289 287 282 279 280 276 275 277
330 328 328 332 332 330 338 345 344 345 337 335 335 331 332 347 341 341 343 343 335 342 334 332 341 333 323 326 326 326 323 319 310 304 299 294 288 287 288 284 279 276 276 275
332 331 327 325 338 346 341 342 338 341 340 335 332 342 335 342 343 344 344 346 342 338 343 356 343 332 329 333 327 322 321 320 317 308 299 297 292 291 289 286 285 280 277 276
328 328 326 337 341 341 341 337 337 339 334 343 345 346 338 345 340 340 346 342 344 339 347 348 345 346 340 323 317 321 326 321 316 276 290 302 283 287 287 285 286 283 279 275
338 342 345 343 342 338 334 333 338 335 335 344 343 340 340 343 349 345 347 342 348 339 356 347 346 341 323 324 324 325 327 326 323 320 311 295 263 252 259 280 285 285 281 277
343 340 336 338 339 328 328 327 333 334 342 340 336 334 341 343 345 341 344 342 336 352 348 348 345 322 323 323 322 321 319 318 314 313 316 291 268 256 236 227 271 278 284 281
332 332 325 328 329 330 335 336 338 338 337 335 333 332 333 336 332 336 337 344 345 346 349 339 324 322 320 314 314 323 331 346 328 327 319 313 303 277 253 220 286 285 284 286
333 333 324 325 333 335 338 337 336 337 338 337 335 333 334 331 328 333 339 344 345 325 315 314 314 312 315 323 329 329 336 324 307 306 320 329 328 312 300 298 302 306 319 306
335 331 328 332 330 327 328 331 331 339 341 342 342 337 335 331 336 331 331 319 314 290 299 297 299 303 312 325 335 335 320 322 336 327 338 355 349 333 310 316 317 336 348 351
328 326 327 326 325 324 330 335 336 344 339 336 339 335 335 338 333 320 278 270 276 280 284 306 301 295 295 313 337 331 331 342 349 355 6 1 1 357 357 354 354 6 12 11